Regional Weather Roundup
Issued by NWS Sioux Falls, SD

Home | Current Version | Previous Version | Graphics & Text | Print | Product List | Glossary On
Versions: 1 2 3 4 5 6 7 8 9 10 11 12 13 14 15 16 17 18 19 20 21 22 23 24 25 26 27 28 29 30 31 32 33 34 35 36 37 38 39 40 41 42 43 44 45 46 47 48 49 50
000
ASUS43 KFSD 120702
RWRFSD

WEATHER ROUNDUP FOR SE SOUTH DAKOTA/SW MINNESOTA/NW IOWA
NATIONAL WEATHER SERVICE SIOUX FALLS SD
200 AM CDT SAT JUL 12 2014

NOTE: "FAIR" INDICATES FEW OR NO CLOUDS BELOW 12,000 FEET WITH NO
SIGNIFICANT WEATHER AND OR OBSTRUCTIONS TO VISIBILITY.


SDZ038>040-050-052>070-120800-
SOUTHEAST SOUTH DAKOTA

CITY           SKY/WX    TMP DP  RH WIND       PRES   REMARKS
CHAMBERLAIN    CLOUDY    73  66  79 NW7       30.02R
HURON          LGT RAIN  75  70  84 E3        29.97F
MADISON        FAIR      72  72 100 NE5       30.02S FOG
MITCHELL       CLOUDY    76  74  93 S3        30.00R
SIOUX FALLS    CLOUDY    73  71  93 S8        30.00S FOG
WINNER         PTSUNNY   72  67  84 W5        30.03F
YANKTON        CLOUDY    72  68  88 S8        30.04R
$$

MNZ071-072-080-081-089-090-097-098-120800-
SOUTHWEST MINNESOTA

CITY           SKY/WX    TMP DP  RH WIND       PRES   REMARKS
FAIRMONT       PTCLDY    70  64  83 CALM      30.00F
JACKSON        MOCLDY    70  66  88 CALM      30.01F FOG
LUVERNE          N/A     70  68  94 S5        30.02S FOG
MARSHALL       CLOUDY    73  70  88 SW3       29.98F
MONTEVIDEO     MOCLDY    73  70  88 CALM      29.99S
PIPESTONE      CLOUDY    72  70  94 NE3       30.02S FOG
REDWOOD FALLS  MOCLDY    74  72  93 SW3       29.98F
TRACY          CLOUDY    73  71  92 SW5       30.00F FOG
WINDOM         MOCLDY    72  68  88 CALM      30.01F FOG
WORTHINGTON    CLOUDY    72  70  94 CALM      30.02F
$$

IAZ001>003-012>014-020>022-031-032-NEZ013-014-SDZ071-120800-
NORTHWEST IOWA

CITY           SKY/WX    TMP DP  RH WIND       PRES   REMARKS
CHEROKEE       TSTM      71  71 100 CALM      30.02S
DENISON        HVY RAIN  68  68 100 NE20G32   30.02R VSB 1/2
ESTHERVILLE    PTCLDY    67  67 100 CALM      30.00F FOG
LE MARS        LGT RAIN  72  72 100 S8        30.01F
ORANGE CITY    DRIZZLE   72  70  94 S5        30.01F
SHELDON        CLOUDY    70  70 100 S3        30.02R FOG
SIOUX CITY     TSTM      70  69  97 NW5       30.02R FOG
SPENCER        CLOUDY    70  69  97 S7        30.02S FOG
STORM LAKE     LGT RAIN  70  70 100 S6        30.02F
$$

ABBREVIATIONS USED IN REMARKS
   TC - TEMPERATURE IN CELSIUS
  WCI - WIND CHILL INDEX
   HX - HEAT INDEX
  VSB - VISIBILITY




USA.gov is the U.S. government's official web portal to all federal, state and local government web resources and services.